Location: A�t Lahcen
(32.8243°N, 5.4246°W)
Time: 01:44:14
(UTC+00:00)

SEDSat Delta rocket - Pass Details

Date: 27 January 2021
Orbit: 533 x 1000 km, 31.4° (Epoch: 27 February)

Event Time Altitude Azimuth Distance (km) Brightness Sun altitude
Exits shadow 05:36:24 37° 253° (WSW) 1,469 4.5 -21.8°
Maximum altitude 05:39:13 78° 174° (S) 1,017 4.0 -21.2°
Drops below altitude 10° 05:46:01 10° 89° (E) 2,748 7.5 -19.8°
Sets 05:48:40 0° 88° (E) 3,674 8.5 -19.2°
